Time,TemperatureF,DewpointF,PressureIn,WindDirection,WindDirectionDegrees,WindSpeedMPH,WindSpeedGustMPH,Humidity,HourlyPrecipIn,Conditions,Clouds,dailyrainin,SoftwareType,DateUTC
2013-09-17 00:00:00,70.8,69.3,30.12,North,349,2.0,5.0,95,0.00,,OVC250,0.00,VWS V14.01,2013-09-17 05:00:00,
2013-09-17 00:05:00,70.8,69.3,30.12,North,349,0.0,5.0,95,0.00,,OVC250,0.00,VWS V14.01,2013-09-17 05:05:00,
2013-09-17 00:10:00,70.6,69.1,30.12,North,349,0.0,5.0,95,0.00,,OVC250,0.00,VWS V14.01,2013-09-17 05:10:00,
2013-09-17 00:15:00,70.4,68.9,30.11,North,349,0.0,5.0,95,0.00,,OVC250,0.00,VWS V14.01,2013-09-17 05:15:00,
2013-09-17 00:21:00,70.4,68.9,30.11,North,349,0.0,5.0,95,0.00,,OVC250,0.00,VWS V14.01,2013-09-17 05:21:00,
2013-09-17 00:26:00,70.4,69.2,30.11,North,349,0.0,5.0,96,0.00,,OVC250,0.00,VWS V14.01,2013-09-17 05:26:00,
2013-09-17 00:31:00,70.3,69.1,30.11,NNW,344,0.0,5.0,96,0.00,,OVC250,0.00,VWS V14.01,2013-09-17 05:31:00,
2013-09-17 00:36:00,70.3,69.1,30.11,North,353,2.0,5.0,96,0.00,,OVC250,0.00,VWS V14.01,2013-09-17 05:36:00,
2013-09-17 00:41:00,70.3,69.4,30.11,North,352,0.0,5.0,97,0.00,,OVC250,0.00,VWS V14.01,2013-09-17 05:41:00,
2013-09-17 00:46:00,70.3,69.4,30.10,North,352,0.0,5.0,97,0.00,,OVC250,0.00,VWS V14.01,2013-09-17 05:46:00,
2013-09-17 00:51:00,70.1,69.2,30.10,North,353,0.0,5.0,97,0.00,,OVC250,0.00,VWS V14.01,2013-09-17 05:51:00,
2013-09-17 00:56:00,70.1,69.5,30.10,North,352,0.0,5.0,98,0.00,,OVC250,0.00,VWS V14.01,2013-09-17 05:56:00,
2013-09-17 01:01:00,70.1,69.5,30.10,North,352,0.0,0.0,98,0.00,,OVC250,0.00,VWS V14.01,2013-09-17 06:01:00,
2013-09-17 01:06:00,69.9,69.3,30.10,North,359,0.0,2.0,98,0.00,,OVC250,0.00,VWS V14.01,2013-09-17 06:06:00,
2013-09-17 01:11:00,69.9,69.3,30.10,North,359,0.0,2.0,98,0.00,,OVC250,0.00,VWS V14.01,2013-09-17 06:11:00,
2013-09-17 01:16:00,69.9,69.3,30.10,North,359,0.0,2.0,98,0.00,,OVC250,0.00,VWS V14.01,2013-09-17 06:16:00,
2013-09-17 01:21:00,69.8,69.5,30.10,North,0,2.0,5.0,99,0.00,,OVC250,0.00,VWS V14.01,2013-09-17 06:21:00,
2013-09-17 01:26:00,69.8,69.5,30.10,North,0,0.0,5.0,99,0.00,,OVC250,0.00,VWS V14.01,2013-09-17 06:26:00,
2013-09-17 01:31:00,69.6,69.3,30.10,North,0,0.0,5.0,99,0.00,,OVC250,0.00,VWS V14.01,2013-09-17 06:31:00,
2013-09-17 01:36:00,69.6,69.3,30.10,North,0,0.0,5.0,99,0.00,,OVC250,0.00,VWS V14.01,2013-09-17 06:36:00,
2013-09-17 01:41:00,69.4,69.1,30.10,North,0,0.0,5.0,99,0.00,,OVC250,0.00,VWS V14.01,2013-09-17 06:41:00,
2013-09-17 01:46:00,69.4,69.1,30.10,North,0,0.0,5.0,99,0.00,,OVC250,0.00,VWS V14.01,2013-09-17 06:46:00,
2013-09-17 01:51:00,69.4,69.1,30.10,North,0,0.0,5.0,99,0.00,,OVC250,0.00,VWS V14.01,2013-09-17 06:51:00,
2013-09-17 01:56:00,69.3,69.3,30.10,North,0,0.0,5.0,100,0.00,,OVC250,0.00,VWS V14.01,2013-09-17 06:56:00,
2013-09-17 02:01:00,69.3,69.3,30.10,North,0,0.0,1.0,100,0.00,,OVC250,0.00,VWS V14.01,2013-09-17 07:01:00,
2013-09-17 02:06:00,69.3,69.3,30.10,North,0,0.0,1.0,100,0.00,,OVC250,0.00,VWS V14.01,2013-09-17 07:06:00,
2013-09-17 02:11:00,69.1,69.1,30.10,North,0,0.0,1.0,100,0.00,,OVC250,0.00,VWS V14.01,2013-09-17 07:11:00,
2013-09-17 02:17:00,69.1,69.1,30.09,North,0,0.0,2.0,100,0.00,,OVC250,0.00,VWS V14.01,2013-09-17 07:17:00,
2013-09-17 02:22:00,68.9,68.9,30.09,North,0,2.0,2.0,100,0.00,,OVC250,0.00,VWS V14.01,2013-09-17 07:22:00,
2013-09-17 02:27:00,68.9,68.9,30.09,North,1,0.0,2.0,100,0.00,,OVC250,0.00,VWS V14.01,2013-09-17 07:27:00,
2013-09-17 02:32:00,68.9,68.9,30.09,North,1,0.0,2.0,100,0.00,,OVC250,0.00,VWS V14.01,2013-09-17 07:32:00,
2013-09-17 02:37:00,68.8,68.8,30.09,North,1,0.0,2.0,100,0.00,,OVC250,0.00,VWS V14.01,2013-09-17 07:37:00,
2013-09-17 02:42:00,68.8,68.8,30.09,North,1,0.0,2.0,100,0.00,,OVC250,0.00,VWS V14.01,2013-09-17 07:42:00,
2013-09-17 02:47:00,68.8,68.8,30.08,North,1,0.0,2.0,100,0.00,,OVC250,0.00,VWS V14.01,2013-09-17 07:47:00,
2013-09-17 02:52:00,68.6,68.6,30.08,North,1,0.0,2.0,100,0.00,,OVC250,0.00,VWS V14.01,2013-09-17 07:52:00,
2013-09-17 02:57:00,68.6,68.6,30.08,North,3,0.0,2.0,100,0.00,,OVC250,0.00,VWS V14.01,2013-09-17 07:57:00,
2013-09-17 03:02:00,68.6,68.6,30.08,North,7,0.0,2.0,100,0.00,,OVC250,0.00,VWS V14.01,2013-09-17 08:02:00,
2013-09-17 03:07:00,68.6,68.6,30.08,North,7,0.0,2.0,100,0.00,,OVC250,0.00,VWS V14.01,2013-09-17 08:07:00,
2013-09-17 03:12:00,68.4,68.4,30.08,North,7,0.0,2.0,100,0.00,,OVC250,0.00,VWS V14.01,2013-09-17 08:12:00,
2013-09-17 03:17:00,68.4,68.4,30.08,North,7,0.0,2.0,100,0.00,,OVC250,0.00,VWS V14.01,2013-09-17 08:17:00,
2013-09-17 03:22:00,68.4,68.4,30.08,North,7,1.0,2.0,100,0.00,,OVC250,0.00,VWS V14.01,2013-09-17 08:22:00,
2013-09-17 03:27:00,68.4,68.4,30.08,North,7,0.0,2.0,100,0.00,,OVC250,0.00,VWS V14.01,2013-09-17 08:27:00,
2013-09-17 03:32:00,68.3,68.3,30.07,North,7,0.0,2.0,100,0.00,,OVC250,0.00,VWS V14.01,2013-09-17 08:32:00,
2013-09-17 03:37:00,68.3,68.3,30.07,North,7,0.0,2.0,100,0.00,,OVC250,0.00,VWS V14.01,2013-09-17 08:37:00,
2013-09-17 03:42:00,68.3,68.3,30.07,North,7,0.0,2.0,100,0.00,,OVC250,0.00,VWS V14.01,2013-09-17 08:42:00,
2013-09-17 03:47:00,68.3,68.3,30.07,North,7,0.0,2.0,100,0.00,,OVC250,0.00,VWS V14.01,2013-09-17 08:47:00,
2013-09-17 03:52:00,68.3,68.3,30.07,North,7,0.0,2.0,100,0.00,,OVC250,0.00,VWS V14.01,2013-09-17 08:52:00,
2013-09-17 03:57:00,68.3,68.3,30.07,North,7,0.0,2.0,100,0.00,,OVC250,0.00,VWS V14.01,2013-09-17 08:57:00,
2013-09-17 04:00:00,68.3,68.3,30.07,North,7,0.0,2.0,100,0.00,,OVC041CB,0.00,VWS V14.01,2013-09-17 09:00:00,
2013-09-17 04:02:00,68.3,68.3,30.07,North,7,0.0,1.0,100,0.00,,OVC200,0.00,VWS V14.01,2013-09-17 09:02:00,
2013-09-17 04:07:00,68.3,68.3,30.07,North,7,0.0,1.0,100,0.00,,OVC200,0.00,VWS V14.01,2013-09-17 09:07:00,
2013-09-17 04:13:00,68.3,68.3,30.07,North,7,0.0,1.0,100,0.00,,OVC200,0.00,VWS V14.01,2013-09-17 09:13:00,
2013-09-17 04:18:00,68.1,68.1,30.07,North,7,0.0,1.0,100,0.00,,OVC200,0.00,VWS V14.01,2013-09-17 09:18:00,
2013-09-17 04:23:00,68.1,68.1,30.07,North,7,0.0,1.0,100,0.00,,OVC200,0.00,VWS V14.01,2013-09-17 09:23:00,
2013-09-17 04:28:00,68.1,68.1,30.07,North,7,0.0,1.0,100,0.00,,OVC200,0.00,VWS V14.01,2013-09-17 09:28:00,
2013-09-17 04:33:00,68.1,68.1,30.07,North,7,0.0,1.0,100,0.00,,OVC200,0.00,VWS V14.01,2013-09-17 09:33:00,
2013-09-17 04:38:00,67.9,67.9,30.07,North,7,0.0,1.0,100,0.00,,OVC200,0.00,VWS V14.01,2013-09-17 09:38:00,
2013-09-17 04:43:00,67.9,67.9,30.07,North,7,0.0,1.0,100,0.00,,OVC200,0.00,VWS V14.01,2013-09-17 09:43:00,
2013-09-17 04:48:00,67.9,67.9,30.07,North,7,0.0,1.0,100,0.00,,OVC200,0.00,VWS V14.01,2013-09-17 09:48:00,
2013-09-17 04:53:00,67.8,67.8,30.07,North,7,0.0,1.0,100,0.00,,OVC200,0.00,VWS V14.01,2013-09-17 09:53:00,
2013-09-17 04:58:00,67.8,67.8,30.07,North,7,0.0,1.0,100,0.00,,OVC200,0.00,VWS V14.01,2013-09-17 09:58:00,
2013-09-17 05:03:00,67.8,67.8,30.07,North,7,0.0,1.0,100,0.00,,OVC200,0.00,VWS V14.01,2013-09-17 10:03:00,
2013-09-17 05:08:00,67.8,67.8,30.07,North,7,0.0,1.0,100,0.00,,OVC200,0.00,VWS V14.01,2013-09-17 10:08:00,
2013-09-17 05:13:00,67.6,67.6,30.07,North,7,0.0,1.0,100,0.00,,OVC200,0.00,VWS V14.01,2013-09-17 10:13:00,
2013-09-17 05:18:00,67.6,67.6,30.07,North,7,0.0,1.0,100,0.00,,OVC200,0.00,VWS V14.01,2013-09-17 10:18:00,
2013-09-17 05:23:00,67.6,67.6,30.07,North,7,0.0,1.0,100,0.00,,OVC200,0.00,VWS V14.01,2013-09-17 10:23:00,
2013-09-17 05:28:00,67.6,67.6,30.07,North,7,0.0,2.0,100,0.00,,OVC200,0.00,VWS V14.01,2013-09-17 10:28:00,
2013-09-17 05:33:00,67.6,67.6,30.07,ENE,76,1.0,5.0,100,0.00,,OVC200,0.00,VWS V14.01,2013-09-17 10:33:00,
2013-09-17 05:38:00,67.4,67.4,30.07,East,86,2.0,5.0,100,0.00,,OVC200,0.00,VWS V14.01,2013-09-17 10:38:00,
2013-09-17 05:43:00,67.4,67.4,30.07,East,90,2.0,5.0,100,0.00,,OVC200,0.00,VWS V14.01,2013-09-17 10:43:00,
2013-09-17 05:48:00,67.6,67.6,30.07,East,90,0.0,6.0,100,0.00,,OVC200,0.00,VWS V14.01,2013-09-17 10:48:00,
2013-09-17 05:54:00,67.4,67.4,30.07,East,83,1.0,6.0,100,0.00,,OVC200,0.00,VWS V14.01,2013-09-17 10:54:00,
2013-09-17 05:59:00,67.4,67.4,30.07,East,89,5.0,6.0,100,0.00,,OVC200,0.00,VWS V14.01,2013-09-17 10:59:00,
2013-09-17 06:04:00,67.4,67.4,30.07,East,83,0.0,3.0,100,0.00,,BKN200,0.00,VWS V14.01,2013-09-17 11:04:00,
2013-09-17 06:09:00,67.4,67.4,30.07,ENE,76,1.0,5.0,100,0.00,,BKN200,0.00,VWS V14.01,2013-09-17 11:09:00,
2013-09-17 06:14:00,67.4,67.4,30.07,ENE,76,1.0,5.0,100,0.00,,BKN200,0.00,VWS V14.01,2013-09-17 11:14:00,
2013-09-17 06:19:00,67.4,67.4,30.07,East,100,0.0,5.0,100,0.00,,BKN200,0.00,VWS V14.01,2013-09-17 11:19:00,
2013-09-17 06:24:00,67.4,67.4,30.07,ESE,117,0.0,5.0,100,0.00,,BKN200,0.00,VWS V14.01,2013-09-17 11:24:00,
2013-09-17 06:29:00,67.4,67.4,30.07,ESE,114,0.0,5.0,100,0.00,,BKN200,0.00,VWS V14.01,2013-09-17 11:29:00,
2013-09-17 06:34:00,67.6,67.6,30.09,WNW,285,7.0,7.0,100,0.00,,BKN200,0.00,VWS V14.01,2013-09-17 11:34:00,
2013-09-17 06:39:00,67.8,67.8,30.09,WNW,295,1.0,8.0,100,0.00,,BKN200,0.00,VWS V14.01,2013-09-17 11:39:00,
2013-09-17 06:44:00,67.8,67.8,30.09,WNW,287,0.0,8.0,100,0.00,,BKN200,0.00,VWS V14.01,2013-09-17 11:44:00,
2013-09-17 06:49:00,67.8,67.8,30.09,WNW,287,0.0,8.0,100,0.00,,BKN200,0.00,VWS V14.01,2013-09-17 11:49:00,
2013-09-17 06:54:00,67.9,67.9,30.09,WNW,294,0.0,8.0,100,0.00,,BKN200,0.00,VWS V14.01,2013-09-17 11:54:00,
2013-09-17 06:59:00,67.8,67.8,30.10,WNW,294,0.0,8.0,100,0.00,,BKN200,0.00,VWS V14.01,2013-09-17 11:59:00,
2013-09-17 07:00:00,67.8,67.8,30.10,WNW,294,0.0,8.0,100,0.00,,OVC041CB,0.00,VWS V14.01,2013-09-17 12:00:00,
2013-09-17 07:04:00,67.8,67.8,30.10,WNW,294,0.0,0.0,100,0.00,,,0.00,VWS V14.01,2013-09-17 12:04:00,
2013-09-17 07:09:00,67.9,67.9,30.10,WNW,294,0.0,0.0,100,0.00,,,0.00,VWS V14.01,2013-09-17 12:09:00,
2013-09-17 07:14:00,67.9,67.6,30.12,WNW,294,0.0,2.0,99,0.00,,,0.00,VWS V14.01,2013-09-17 12:14:00,
2013-09-17 07:19:00,67.9,67.6,30.12,WNW,294,0.0,2.0,99,0.00,,,0.00,VWS V14.01,2013-09-17 12:19:00,
2013-09-17 07:24:00,68.1,67.8,30.12,WNW,294,0.0,2.0,99,0.00,,,0.00,VWS V14.01,2013-09-17 12:24:00,
2013-09-17 07:29:00,68.3,68.3,30.12,WNW,294,0.0,2.0,100,0.00,,,0.00,VWS V14.01,2013-09-17 12:29:00,
2013-09-17 07:35:00,68.3,68.3,30.12,WNW,294,0.0,2.0,100,0.00,,,0.00,VWS V14.01,2013-09-17 12:35:00,
2013-09-17 07:40:00,68.3,68.3,30.12,WNW,294,0.0,2.0,100,0.00,,,0.00,VWS V14.01,2013-09-17 12:40:00,
2013-09-17 07:45:00,68.4,68.4,30.12,WNW,294,0.0,2.0,100,0.00,,,0.00,VWS V14.01,2013-09-17 12:45:00,
2013-09-17 07:50:00,68.4,68.4,30.12,WNW,294,0.0,2.0,100,0.00,,,0.00,VWS V14.01,2013-09-17 12:50:00,
2013-09-17 07:55:00,68.6,68.3,30.12,WNW,294,0.0,2.0,99,0.00,,,0.00,VWS V14.01,2013-09-17 12:55:00,
2013-09-17 08:00:00,68.8,68.5,30.12,WNW,294,0.0,2.0,99,0.00,,,0.00,VWS V14.01,2013-09-17 13:00:00,
2013-09-17 08:05:00,68.9,68.6,30.12,WNW,294,0.0,0.0,99,0.00,,,0.00,VWS V14.01,2013-09-17 13:05:00,
2013-09-17 08:10:00,68.9,68.6,30.12,WNW,294,0.0,0.0,99,0.00,,,0.00,VWS V14.01,2013-09-17 13:10:00,
2013-09-17 08:15:00,69.1,68.8,30.12,WNW,294,0.0,0.0,99,0.00,,,0.00,VWS V14.01,2013-09-17 13:15:00,
2013-09-17 08:20:00,68.9,68.0,30.12,WNW,284,1.0,1.0,97,0.00,,,0.00,VWS V14.01,2013-09-17 13:20:00,
2013-09-17 08:25:00,68.8,66.7,30.12,SSE,161,0.0,2.0,93,0.00,,,0.00,VWS V14.01,2013-09-17 13:25:00,
2013-09-17 08:30:00,68.9,65.8,30.12,SSE,160,0.0,2.0,90,0.00,,,0.00,VWS V14.01,2013-09-17 13:30:00,
2013-09-17 08:35:00,69.3,65.6,30.12,SSE,152,0.0,2.0,88,0.00,,,0.00,VWS V14.01,2013-09-17 13:35:00,
2013-09-17 08:40:00,69.6,65.9,30.12,SSE,148,0.0,2.0,88,0.00,,,0.00,VWS V14.01,2013-09-17 13:40:00,
2013-09-17 08:45:00,69.8,65.4,30.12,SE,145,1.0,2.0,86,0.00,,,0.00,VWS V14.01,2013-09-17 13:45:00,
2013-09-17 08:50:00,69.8,65.4,30.12,SE,145,0.0,2.0,86,0.01,,,0.01,VWS V14.01,2013-09-17 13:50:00,
2013-09-17 08:55:00,69.8,65.4,30.12,SSE,147,0.0,2.0,86,0.01,,,0.01,VWS V14.01,2013-09-17 13:55:00,
2013-09-17 09:01:00,69.6,65.2,30.12,SE,143,0.0,0.0,86,0.01,,-RA,0.01,VWS V14.01,2013-09-17 14:01:00,
2013-09-17 09:06:00,69.6,65.6,30.12,SE,143,0.0,0.0,87,0.01,,-RA,0.01,VWS V14.01,2013-09-17 14:06:00,
2013-09-17 09:11:00,69.8,66.1,30.12,SE,143,0.0,0.0,88,0.01,,-RA,0.01,VWS V14.01,2013-09-17 14:11:00,
2013-09-17 09:16:00,69.8,65.8,30.12,SE,143,0.0,0.0,87,0.01,,-RA,0.01,VWS V14.01,2013-09-17 14:16:00,
2013-09-17 09:21:00,69.9,66.2,30.12,SE,143,0.0,0.0,88,0.01,,-RA,0.01,VWS V14.01,2013-09-17 14:21:00,
2013-09-17 09:26:00,70.3,66.9,30.12,SE,143,0.0,0.0,89,0.01,,-RA,0.01,VWS V14.01,2013-09-17 14:26:00,
2013-09-17 09:31:00,70.4,66.7,30.12,SE,143,0.0,0.0,88,0.01,,-RA,0.01,VWS V14.01,2013-09-17 14:31:00,
2013-09-17 09:36:00,70.6,66.9,30.12,SE,143,0.0,0.0,88,0.01,,-RA,0.01,VWS V14.01,2013-09-17 14:36:00,
2013-09-17 09:41:00,70.6,66.2,30.12,SE,145,0.0,1.0,86,0.01,,-RA,0.01,VWS V14.01,2013-09-17 14:41:00,
2013-09-17 09:46:00,70.8,66.1,30.13,SSE,152,0.0,1.0,85,0.01,,-RA,0.01,VWS V14.01,2013-09-17 14:46:00,
2013-09-17 09:51:00,70.8,66.4,30.13,ESE,120,2.0,2.0,86,0.04,,-RA,0.04,VWS V14.01,2013-09-17 14:51:00,
2013-09-17 09:56:00,69.8,66.1,30.13,East,90,2.0,3.0,88,0.09,,-RA,0.09,VWS V14.01,2013-09-17 14:56:00,
2013-09-17 10:01:00,69.3,66.2,30.13,East,93,0.0,1.0,90,0.08,,-RA,0.09,VWS V14.01,2013-09-17 15:01:00,
2013-09-17 10:06:00,68.9,66.2,30.13,East,93,0.0,1.0,91,0.08,,-RA,0.09,VWS V14.01,2013-09-17 15:06:00,
2013-09-17 10:11:00,68.8,66.1,30.13,East,93,0.0,1.0,91,0.08,,-RA,0.09,VWS V14.01,2013-09-17 15:11:00,
2013-09-17 10:16:00,68.8,66.4,30.14,East,93,0.0,1.0,92,0.08,,-RA,0.09,VWS V14.01,2013-09-17 15:16:00,
2013-09-17 10:21:00,68.9,67.1,30.14,East,92,0.0,1.0,94,0.08,,-RA,0.09,VWS V14.01,2013-09-17 15:21:00,
2013-09-17 10:26:00,68.9,67.4,30.14,East,90,2.0,2.0,95,0.10,,-RA,0.11,VWS V14.01,2013-09-17 15:26:00,
2013-09-17 10:31:00,68.9,67.7,30.13,East,79,3.0,3.0,96,0.11,,-RA,0.12,VWS V14.01,2013-09-17 15:31:00,
2013-09-17 10:37:00,68.9,68.0,30.13,East,80,2.0,3.0,97,0.11,,-RA,0.12,VWS V14.01,2013-09-17 15:37:00,
2013-09-17 10:42:00,68.9,67.7,30.13,East,79,2.0,5.0,96,0.11,,-RA,0.12,VWS V14.01,2013-09-17 15:42:00,
2013-09-17 10:47:00,68.9,68.0,30.13,ENE,78,0.0,5.0,97,0.11,,-RA,0.12,VWS V14.01,2013-09-17 15:47:00,
2013-09-17 10:52:00,68.9,68.0,30.13,ESE,102,0.0,5.0,97,0.11,,-RA,0.12,VWS V14.01,2013-09-17 15:52:00,
2013-09-17 10:57:00,69.3,68.7,30.13,ESE,107,0.0,5.0,98,0.11,,-RA,0.12,VWS V14.01,2013-09-17 15:57:00,
2013-09-17 11:02:00,69.3,68.1,30.13,ESE,117,0.0,2.0,96,0.03,,-RA,0.12,VWS V14.01,2013-09-17 16:02:00,
2013-09-17 11:07:00,69.3,67.8,30.13,ESE,117,0.0,2.0,95,0.03,,-RA,0.12,VWS V14.01,2013-09-17 16:07:00,
2013-09-17 11:12:00,69.8,68.3,30.13,ESE,110,1.0,2.0,95,0.03,,-RA,0.12,VWS V14.01,2013-09-17 16:12:00,
2013-09-17 11:17:00,70.1,68.3,30.12,ESE,102,0.0,3.0,94,0.03,,-RA,0.12,VWS V14.01,2013-09-17 16:17:00,
2013-09-17 11:22:00,70.4,68.0,30.12,ENE,69,2.0,5.0,92,0.03,,-RA,0.12,VWS V14.01,2013-09-17 16:22:00,
2013-09-17 11:27:00,70.9,68.8,30.12,East,89,0.0,5.0,93,0.03,,-RA,0.12,VWS V14.01,2013-09-17 16:27:00,
2013-09-17 11:32:00,71.1,68.7,30.12,East,93,0.0,5.0,92,0.03,,-RA,0.12,VWS V14.01,2013-09-17 16:32:00,
2013-09-17 11:37:00,71.3,69.2,30.12,East,82,0.0,5.0,93,0.03,,-RA,0.12,VWS V14.01,2013-09-17 16:37:00,
2013-09-17 11:42:00,71.5,68.1,30.12,ESE,104,1.0,5.0,89,0.03,,-RA,0.12,VWS V14.01,2013-09-17 16:42:00,
2013-09-17 11:47:00,71.5,67.1,30.11,ESE,104,2.0,5.0,86,0.03,,-RA,0.12,VWS V14.01,2013-09-17 16:47:00,
2013-09-17 11:52:00,71.5,67.1,30.11,East,90,0.0,5.0,86,0.03,,-RA,0.12,VWS V14.01,2013-09-17 16:52:00,
2013-09-17 11:57:00,71.5,67.1,30.11,SSE,151,0.0,5.0,86,0.03,,-RA,0.12,VWS V14.01,2013-09-17 16:57:00,
2013-09-17 12:02:00,71.5,66.4,30.11,ESE,102,5.0,5.0,84,0.00,,-RA,0.12,VWS V14.01,2013-09-17 17:02:00,
2013-09-17 12:07:00,71.6,66.9,30.11,ESE,121,2.0,5.0,85,0.00,,-RA,0.12,VWS V14.01,2013-09-17 17:07:00,
2013-09-17 12:12:00,71.8,67.1,30.11,ENE,75,0.0,5.0,85,0.01,,-RA,0.13,VWS V14.01,2013-09-17 17:12:00,
2013-09-17 12:17:00,72.1,68.0,30.10,ENE,75,2.0,5.0,87,0.01,,-RA,0.13,VWS V14.01,2013-09-17 17:17:00,
2013-09-17 12:23:00,72.1,67.7,30.10,ESE,109,0.0,5.0,86,0.01,,-RA,0.13,VWS V14.01,2013-09-17 17:23:00,
2013-09-17 12:28:00,72.1,67.0,30.10,ESE,117,0.0,5.0,84,0.01,,-RA,0.13,VWS V14.01,2013-09-17 17:28:00,
2013-09-17 12:33:00,72.0,66.6,30.10,ESE,104,1.0,5.0,83,0.01,,-RA,0.13,VWS V14.01,2013-09-17 17:33:00,
2013-09-17 12:38:00,71.8,66.4,30.10,ESE,109,0.0,5.0,83,0.01,,-RA,0.13,VWS V14.01,2013-09-17 17:38:00,
2013-09-17 12:43:00,72.0,66.6,30.10,ESE,112,0.0,5.0,83,0.01,,-RA,0.13,VWS V14.01,2013-09-17 17:43:00,
2013-09-17 12:48:00,72.0,66.9,30.10,East,99,0.0,5.0,84,0.01,,-RA,0.13,VWS V14.01,2013-09-17 17:48:00,
2013-09-17 12:53:00,72.0,66.9,30.10,East,88,2.0,5.0,84,0.01,,-RA,0.13,VWS V14.01,2013-09-17 17:53:00,
2013-09-17 12:58:00,72.0,67.2,30.10,East,88,0.0,5.0,85,0.01,,-RA,0.13,VWS V14.01,2013-09-17 17:58:00,
2013-09-17 13:03:00,72.1,67.0,30.10,East,85,3.0,5.0,84,0.01,,-RA,0.13,VWS V14.01,2013-09-17 18:03:00,
2013-09-17 13:08:00,72.3,66.8,30.10,ENE,76,2.0,6.0,83,0.01,,-RA,0.13,VWS V14.01,2013-09-17 18:08:00,
2013-09-17 13:13:00,72.3,66.8,30.10,ENE,68,0.0,6.0,83,0.01,,-RA,0.13,VWS V14.01,2013-09-17 18:13:00,
2013-09-17 13:18:00,72.5,67.7,30.09,ENE,68,0.0,6.0,85,0.01,,-RA,0.13,VWS V14.01,2013-09-17 18:18:00,
2013-09-17 13:23:00,72.8,68.0,30.09,ENE,68,3.0,6.0,85,0.01,,-RA,0.13,VWS V14.01,2013-09-17 18:23:00,
2013-09-17 13:28:00,73.5,68.7,30.09,ENE,68,0.0,6.0,85,0.01,,-RA,0.13,VWS V14.01,2013-09-17 18:28:00,
2013-09-17 13:33:00,73.9,68.4,30.08,ENE,68,0.0,6.0,83,0.01,,-RA,0.13,VWS V14.01,2013-09-17 18:33:00,
2013-09-17 13:38:00,73.7,67.5,30.08,ENE,68,0.0,6.0,81,0.01,,-RA,0.13,VWS V14.01,2013-09-17 18:38:00,
2013-09-17 13:43:00,73.9,68.1,30.08,ENE,68,0.0,6.0,82,0.01,,-RA,0.13,VWS V14.01,2013-09-17 18:43:00,
2013-09-17 13:48:00,74.0,68.2,30.08,ENE,68,0.0,6.0,82,0.01,,-RA,0.13,VWS V14.01,2013-09-17 18:48:00,
2013-09-17 13:53:00,74.0,68.2,30.08,ENE,68,0.0,6.0,82,0.01,,-RA,0.13,VWS V14.01,2013-09-17 18:53:00,
2013-09-17 13:58:00,73.9,67.7,30.08,ENE,68,1.0,6.0,81,0.01,,-RA,0.13,VWS V14.01,2013-09-17 18:58:00,
2013-09-17 14:00:00,73.7,67.5,30.07,ENE,68,1.0,6.0,81,0.01,,OVC041CB,0.13,VWS V14.01,2013-09-17 19:00:00,
2013-09-17 14:04:00,73.5,68.0,30.07,ENE,62,0.0,3.0,83,0.00,,OVC120,0.13,VWS V14.01,2013-09-17 19:04:00,
2013-09-17 14:09:00,73.5,68.4,30.07,ENE,62,0.0,3.0,84,0.00,,OVC120,0.13,VWS V14.01,2013-09-17 19:09:00,
2013-09-17 14:14:00,73.7,68.6,30.07,ENE,64,0.0,3.0,84,0.00,,OVC120,0.13,VWS V14.01,2013-09-17 19:14:00,
2013-09-17 14:19:00,73.9,69.1,30.06,ENE,64,1.0,3.0,85,0.00,,OVC120,0.13,VWS V14.01,2013-09-17 19:19:00,
2013-09-17 14:24:00,74.2,69.1,30.06,ENE,68,0.0,5.0,84,0.00,,OVC120,0.13,VWS V14.01,2013-09-17 19:24:00,
2013-09-17 14:29:00,74.6,69.1,30.05,ENE,68,0.0,5.0,83,0.00,,OVC120,0.13,VWS V14.01,2013-09-17 19:29:00,
2013-09-17 14:34:00,74.9,69.4,30.05,ENE,68,0.0,5.0,83,0.00,,OVC120,0.13,VWS V14.01,2013-09-17 19:34:00,
2013-09-17 14:39:00,75.3,69.1,30.05,ENE,68,0.0,5.0,81,0.00,,OVC120,0.13,VWS V14.01,2013-09-17 19:39:00,
2013-09-17 14:44:00,75.6,69.0,30.05,ENE,68,0.0,5.0,80,0.00,,OVC120,0.13,VWS V14.01,2013-09-17 19:44:00,
2013-09-17 14:49:00,75.8,68.1,30.05,ENE,68,1.0,5.0,77,0.00,,OVC120,0.13,VWS V14.01,2013-09-17 19:49:00,
2013-09-17 14:54:00,76.0,68.7,30.05,ENE,68,0.0,5.0,78,0.00,,OVC120,0.13,VWS V14.01,2013-09-17 19:54:00,
2013-09-17 14:59:00,75.8,68.1,30.04,ENE,68,0.0,5.0,77,0.00,,OVC120,0.13,VWS V14.01,2013-09-17 19:59:00,
2013-09-17 15:04:00,76.0,69.4,30.04,ENE,58,0.0,2.0,80,0.00,,-RA,0.13,VWS V14.01,2013-09-17 20:04:00,
2013-09-17 15:09:00,76.0,68.3,30.04,ENE,69,0.0,2.0,77,0.00,,-RA,0.13,VWS V14.01,2013-09-17 20:09:00,
2013-09-17 15:14:00,76.3,68.6,30.04,ENE,71,0.0,3.0,77,0.00,,-RA,0.13,VWS V14.01,2013-09-17 20:14:00,
2013-09-17 15:19:00,77.0,69.2,30.04,ENE,61,0.0,3.0,77,0.00,,-RA,0.13,VWS V14.01,2013-09-17 20:19:00,
2013-09-17 15:24:00,77.7,69.9,30.04,East,79,0.0,5.0,77,0.00,,-RA,0.13,VWS V14.01,2013-09-17 20:24:00,
2013-09-17 15:30:00,78.1,68.3,30.03,NE,48,0.0,7.0,72,0.00,,-RA,0.13,VWS V14.01,2013-09-17 20:30:00,
2013-09-17 15:35:00,77.9,68.2,30.03,East,85,2.0,7.0,72,0.00,,-RA,0.13,VWS V14.01,2013-09-17 20:35:00,
2013-09-17 15:40:00,77.9,68.2,30.03,ENE,76,2.0,7.0,72,0.00,,-RA,0.13,VWS V14.01,2013-09-17 20:40:00,
2013-09-17 15:45:00,77.9,67.8,30.02,ESE,106,1.0,7.0,71,0.00,,-RA,0.13,VWS V14.01,2013-09-17 20:45:00,
2013-09-17 15:50:00,78.3,68.1,30.02,East,82,2.0,7.0,71,0.00,,-RA,0.13,VWS V14.01,2013-09-17 20:50:00,
2013-09-17 15:55:00,78.8,67.8,30.02,ENE,75,5.0,7.0,69,0.00,,-RA,0.13,VWS V14.01,2013-09-17 20:55:00,
2013-09-17 16:00:00,79.2,68.6,30.01,East,82,3.0,7.0,70,0.00,,-RA,0.13,VWS V14.01,2013-09-17 21:00:00,
2013-09-17 16:05:00,79.6,68.5,30.01,ENE,73,3.0,5.0,69,0.00,,SCT110,0.13,VWS V14.01,2013-09-17 21:05:00,
2013-09-17 16:10:00,80.1,68.2,30.01,East,99,0.0,7.0,67,0.00,,SCT110,0.13,VWS V14.01,2013-09-17 21:10:00,
2013-09-17 16:15:00,80.1,68.2,30.00,ENE,69,1.0,7.0,67,0.00,,SCT110,0.13,VWS V14.01,2013-09-17 21:15:00,
2013-09-17 16:20:00,80.1,67.3,30.00,ESE,102,2.0,7.0,65,0.00,,SCT110,0.13,VWS V14.01,2013-09-17 21:20:00,
2013-09-17 16:25:00,80.3,67.9,30.00,ENE,72,2.0,7.0,66,0.00,,SCT110,0.13,VWS V14.01,2013-09-17 21:25:00,
2013-09-17 16:30:00,80.5,68.5,29.99,East,79,0.0,7.0,67,0.00,,SCT110,0.13,VWS V14.01,2013-09-17 21:30:00,
2013-09-17 16:35:00,80.9,69.4,29.99,North,357,0.0,7.0,68,0.00,,SCT110,0.13,VWS V14.01,2013-09-17 21:35:00,
2013-09-17 16:40:00,81.1,67.3,29.99,East,83,0.0,7.0,63,0.00,,SCT110,0.13,VWS V14.01,2013-09-17 21:40:00,
2013-09-17 16:45:00,81.1,67.8,29.99,ENE,72,2.0,7.0,64,0.00,,SCT110,0.13,VWS V14.01,2013-09-17 21:45:00,
2013-09-17 16:50:00,81.2,68.3,29.99,ENE,58,1.0,7.0,65,0.00,,SCT110,0.13,VWS V14.01,2013-09-17 21:50:00,
2013-09-17 16:56:00,81.4,68.1,29.99,East,82,2.0,7.0,64,0.00,,SCT110,0.13,VWS V14.01,2013-09-17 21:56:00,
2013-09-17 17:01:00,81.6,68.2,29.98,East,97,5.0,7.0,64,0.00,,FEW110,0.13,VWS V14.01,2013-09-17 22:01:00,
2013-09-17 17:06:00,81.8,67.5,29.98,ENE,75,5.0,7.0,62,0.00,,FEW110,0.13,VWS V14.01,2013-09-17 22:06:00,
2013-09-17 17:11:00,82.0,67.7,29.98,East,100,2.0,7.0,62,0.00,,FEW110,0.13,VWS V14.01,2013-09-17 22:11:00,
2013-09-17 17:16:00,81.4,67.1,29.98,ENE,73,6.0,10.0,62,0.00,,FEW110,0.13,VWS V14.01,2013-09-17 22:16:00,
2013-09-17 17:21:00,81.4,67.6,29.98,ENE,68,2.0,10.0,63,0.00,,FEW110,0.13,VWS V14.01,2013-09-17 22:21:00,
2013-09-17 17:26:00,81.2,66.0,29.98,ENE,78,1.0,10.0,60,0.00,,FEW110,0.13,VWS V14.01,2013-09-17 22:26:00,
2013-09-17 17:31:00,81.1,67.8,29.98,ENE,76,2.0,10.0,64,0.00,,FEW110,0.13,VWS V14.01,2013-09-17 22:31:00,
2013-09-17 17:36:00,80.9,66.7,29.98,ENE,72,2.0,10.0,62,0.00,,FEW110,0.13,VWS V14.01,2013-09-17 22:36:00,
2013-09-17 17:41:00,80.9,67.1,29.98,ENE,69,3.0,10.0,63,0.00,,FEW110,0.13,VWS V14.01,2013-09-17 22:41:00,
2013-09-17 17:46:00,81.2,67.4,29.97,East,83,2.0,10.0,63,0.00,,FEW110,0.13,VWS V14.01,2013-09-17 22:46:00,
2013-09-17 17:51:00,81.2,67.9,29.97,ENE,64,1.0,10.0,64,0.00,,FEW110,0.13,VWS V14.01,2013-09-17 22:51:00,
2013-09-17 17:56:00,81.2,67.9,29.97,SE,128,5.0,10.0,64,0.00,,FEW110,0.13,VWS V14.01,2013-09-17 22:56:00,
2013-09-17 18:02:00,81.2,67.9,29.97,ENE,78,2.0,5.0,64,0.00,,SCT110,0.13,VWS V14.01,2013-09-17 23:02:00,
2013-09-17 18:07:00,81.4,68.5,29.97,East,80,2.0,7.0,65,0.00,,SCT110,0.13,VWS V14.01,2013-09-17 23:07:00,
2013-09-17 18:13:00,81.4,67.6,29.97,ENE,78,3.0,7.0,63,0.00,,SCT110,0.13,VWS V14.01,2013-09-17 23:13:00,
2013-09-17 18:18:00,81.2,67.9,29.97,ENE,71,1.0,7.0,64,0.00,,SCT110,0.13,VWS V14.01,2013-09-17 23:18:00,
2013-09-17 18:23:00,81.1,67.3,29.97,ENE,75,6.0,7.0,63,0.00,,SCT110,0.13,VWS V14.01,2013-09-17 23:23:00,
2013-09-17 18:28:00,80.9,67.1,29.97,ENE,75,5.0,7.0,63,0.00,,SCT110,0.13,VWS V14.01,2013-09-17 23:28:00,
2013-09-17 18:33:00,81.1,67.3,29.96,ENE,78,2.0,7.0,63,0.00,,SCT110,0.13,VWS V14.01,2013-09-17 23:33:00,
2013-09-17 18:38:00,81.1,68.2,29.96,ENE,61,3.0,7.0,65,0.00,,SCT110,0.13,VWS V14.01,2013-09-17 23:38:00,
2013-09-17 18:43:00,81.1,66.9,29.96,ENE,78,5.0,7.0,62,0.00,,SCT110,0.13,VWS V14.01,2013-09-17 23:43:00,
2013-09-17 18:48:00,80.9,66.7,29.97,East,82,0.0,7.0,62,0.00,,SCT110,0.13,VWS V14.01,2013-09-17 23:48:00,
2013-09-17 18:53:00,80.9,67.1,29.97,ENE,75,0.0,7.0,63,0.00,,SCT110,0.13,VWS V14.01,2013-09-17 23:53:00,
2013-09-17 18:58:00,80.5,67.2,29.97,ENE,76,2.0,7.0,64,0.00,,SCT110,0.13,VWS V14.01,2013-09-17 23:58:00,
2013-09-17 19:00:00,80.5,67.2,29.97,ENE,72,0.0,7.0,64,0.00,,OVC041CB,0.13,VWS V14.01,2013-09-18 00:00:00,
2013-09-17 19:03:00,80.3,67.5,29.97,ENE,64,2.0,3.0,65,0.00,,SCT100,0.13,VWS V14.01,2013-09-18 00:03:00,
2013-09-17 19:08:00,80.1,67.3,29.97,ENE,69,0.0,5.0,65,0.00,,SCT100,0.13,VWS V14.01,2013-09-18 00:08:00,
2013-09-17 19:13:00,79.8,67.4,29.97,ENE,72,0.0,6.0,66,0.00,,SCT100,0.13,VWS V14.01,2013-09-18 00:13:00,
2013-09-17 19:18:00,79.6,67.7,29.97,East,80,2.0,6.0,67,0.00,,SCT100,0.13,VWS V14.01,2013-09-18 00:18:00,
2013-09-17 19:24:00,79.2,67.7,29.97,ENE,66,0.0,6.0,68,0.00,,SCT100,0.13,VWS V14.01,2013-09-18 00:24:00,
2013-09-17 19:29:00,78.8,67.4,29.97,ENE,65,1.0,6.0,68,0.00,,SCT100,0.13,VWS V14.01,2013-09-18 00:29:00,
2013-09-17 19:34:00,78.6,67.6,29.96,ENE,65,2.0,6.0,69,0.00,,SCT100,0.13,VWS V14.01,2013-09-18 00:34:00,
2013-09-17 19:39:00,78.5,67.5,29.96,ENE,71,2.0,6.0,69,0.00,,SCT100,0.13,VWS V14.01,2013-09-18 00:39:00,
2013-09-17 19:44:00,78.3,67.7,29.96,ENE,65,2.0,6.0,70,0.00,,SCT100,0.13,VWS V14.01,2013-09-18 00:44:00,
2013-09-17 19:49:00,78.1,67.5,29.96,ENE,72,0.0,6.0,70,0.00,,SCT100,0.13,VWS V14.01,2013-09-18 00:49:00,
2013-09-17 19:54:00,78.1,67.5,29.96,ENE,61,2.0,6.0,70,0.00,,SCT100,0.13,VWS V14.01,2013-09-18 00:54:00,
2013-09-17 19:59:00,77.9,67.8,29.95,ENE,64,1.0,6.0,71,0.00,,SCT100,0.13,VWS V14.01,2013-09-18 00:59:00,
2013-09-17 20:04:00,77.9,67.3,29.95,ENE,68,2.0,6.0,70,0.00,,BKN250,0.13,VWS V14.01,2013-09-18 01:04:00,
2013-09-17 20:09:00,77.9,67.8,29.95,ENE,64,5.0,6.0,71,0.00,,BKN250,0.13,VWS V14.01,2013-09-18 01:09:00,
2013-09-17 20:14:00,77.7,67.1,29.96,NE,52,2.0,6.0,70,0.00,,BKN250,0.13,VWS V14.01,2013-09-18 01:14:00,
2013-09-17 20:19:00,77.6,67.9,29.96,ENE,75,2.0,6.0,72,0.00,,BKN250,0.13,VWS V14.01,2013-09-18 01:19:00,
2013-09-17 20:24:00,77.6,67.5,29.96,East,85,2.0,6.0,71,0.00,,BKN250,0.13,VWS V14.01,2013-09-18 01:24:00,
2013-09-17 20:29:00,77.6,67.9,29.96,ENE,75,3.0,6.0,72,0.00,,BKN250,0.13,VWS V14.01,2013-09-18 01:29:00,
2013-09-17 20:34:00,77.4,67.3,29.96,ENE,68,2.0,6.0,71,0.00,,BKN250,0.13,VWS V14.01,2013-09-18 01:34:00,
2013-09-17 20:40:00,77.4,67.7,29.96,ENE,61,5.0,7.0,72,0.00,,BKN250,0.13,VWS V14.01,2013-09-18 01:40:00,
2013-09-17 20:45:00,77.6,67.9,29.97,ENE,75,2.0,7.0,72,0.00,,BKN250,0.13,VWS V14.01,2013-09-18 01:45:00,
2013-09-17 20:50:00,77.4,67.7,29.97,ENE,76,3.0,7.0,72,0.00,,BKN250,0.13,VWS V14.01,2013-09-18 01:50:00,
2013-09-17 20:55:00,77.6,67.5,29.97,East,93,1.0,7.0,71,0.00,,BKN250,0.13,VWS V14.01,2013-09-18 01:55:00,
2013-09-17 21:00:00,77.6,67.9,29.97,ENE,73,2.0,7.0,72,0.00,,BKN250,0.13,VWS V14.01,2013-09-18 02:00:00,
2013-09-17 21:05:00,77.6,67.5,29.97,East,82,2.0,7.0,71,0.00,,BKN250,0.13,VWS V14.01,2013-09-18 02:05:00,
2013-09-17 21:10:00,77.4,67.7,29.97,East,97,1.0,7.0,72,0.00,,BKN250,0.13,VWS V14.01,2013-09-18 02:10:00,
2013-09-17 21:15:00,77.4,67.7,29.99,ESE,116,0.0,7.0,72,0.00,,BKN250,0.13,VWS V14.01,2013-09-18 02:15:00,
2013-09-17 21:20:00,77.6,68.3,29.99,South,191,2.0,7.0,73,0.00,,BKN250,0.13,VWS V14.01,2013-09-18 02:20:00,
2013-09-17 21:25:00,77.6,67.9,29.99,SSE,148,0.0,7.0,72,0.00,,BKN250,0.13,VWS V14.01,2013-09-18 02:25:00,
2013-09-17 21:30:00,78.1,67.9,30.01,SW,224,7.0,17.0,71,0.00,,BKN250,0.13,VWS V14.01,2013-09-18 02:30:00,
2013-09-17 21:36:00,78.1,68.3,30.01,SSW,208,6.0,17.0,72,0.00,,BKN250,0.13,VWS V14.01,2013-09-18 02:36:00,
2013-09-17 21:41:00,78.1,67.9,30.01,SSE,160,3.0,17.0,71,0.00,,BKN250,0.13,VWS V14.01,2013-09-18 02:41:00,
2013-09-17 21:46:00,77.9,67.8,30.01,SSW,195,5.0,17.0,71,0.00,,BKN250,0.13,VWS V14.01,2013-09-18 02:46:00,
2013-09-17 21:51:00,77.6,67.5,30.01,South,179,3.0,17.0,71,0.00,,BKN250,0.13,VWS V14.01,2013-09-18 02:51:00,
2013-09-17 21:56:00,77.4,66.9,30.01,South,189,5.0,17.0,70,0.00,,BKN250,0.13,VWS V14.01,2013-09-18 02:56:00,
2013-09-17 22:01:00,77.0,66.9,29.99,SW,224,5.0,10.0,71,0.00,,OVC100,0.13,VWS V14.01,2013-09-18 03:01:00,
2013-09-17 22:06:00,76.8,66.7,29.99,South,172,0.0,10.0,71,0.00,,OVC100,0.13,VWS V14.01,2013-09-18 03:06:00,
2013-09-17 22:11:00,76.5,66.4,29.99,SSW,209,7.0,10.0,71,0.00,,OVC100,0.13,VWS V14.01,2013-09-18 03:11:00,
2013-09-17 22:16:00,76.3,66.2,30.00,SSW,205,5.0,10.0,71,0.00,,OVC100,0.13,VWS V14.01,2013-09-18 03:16:00,
2013-09-17 22:21:00,76.0,65.9,30.00,SSE,158,0.0,10.0,71,0.00,,OVC100,0.13,VWS V14.01,2013-09-18 03:21:00,
2013-09-17 22:26:00,75.6,65.5,30.00,SSE,157,0.0,10.0,71,0.00,,OVC100,0.13,VWS V14.01,2013-09-18 03:26:00,
2013-09-17 22:31:00,75.4,66.2,30.00,South,179,0.0,10.0,73,0.00,,OVC100,0.13,VWS V14.01,2013-09-18 03:31:00,
2013-09-17 22:36:00,75.1,66.2,30.00,South,186,0.0,10.0,74,0.00,,OVC100,0.13,VWS V14.01,2013-09-18 03:36:00,
2013-09-17 22:41:00,74.9,66.1,30.00,SSE,160,2.0,10.0,74,0.00,,OVC100,0.13,VWS V14.01,2013-09-18 03:41:00,
2013-09-17 22:47:00,74.7,66.3,29.99,SSE,154,0.0,10.0,75,0.00,,OVC100,0.13,VWS V14.01,2013-09-18 03:47:00,
2013-09-17 22:52:00,74.6,66.5,29.99,SSE,152,0.0,10.0,76,0.00,,OVC100,0.13,VWS V14.01,2013-09-18 03:52:00,
2013-09-17 22:57:00,74.4,66.3,29.99,SSE,152,0.0,10.0,76,0.00,,OVC100,0.13,VWS V14.01,2013-09-18 03:57:00,
2013-09-17 23:01:00,74.4,66.3,29.99,SSE,152,0.0,0.0,76,0.00,,BKN250,0.13,VWS V14.01,2013-09-18 04:01:00,
2013-09-17 23:02:00,74.2,66.5,29.99,SSE,152,0.0,0.0,77,0.00,,BKN250,0.13,VWS V14.01,2013-09-18 04:02:00,
2013-09-17 23:04:00,74.2,66.5,29.99,SSE,152,0.0,0.0,77,0.00,,BKN250,0.13,VWS V14.01,2013-09-18 04:04:00,
2013-09-17 23:09:00,74.0,66.3,29.99,SSE,152,0.0,0.0,77,0.00,,BKN250,0.13,VWS V14.01,2013-09-18 04:09:00,
2013-09-17 23:12:00,74.0,66.3,29.99,SSE,152,0.0,0.0,77,0.00,,BKN250,0.13,VWS V14.01,2013-09-18 04:12:00,
2013-09-17 23:17:00,73.9,66.6,29.99,SSE,152,0.0,1.0,78,0.00,,BKN250,0.13,VWS V14.01,2013-09-18 04:17:00,
2013-09-17 23:22:00,73.7,66.8,29.99,SSE,152,0.0,1.0,79,0.00,,BKN250,0.13,VWS V14.01,2013-09-18 04:22:00,
2013-09-17 23:27:00,73.5,66.6,29.99,SSE,152,0.0,1.0,79,0.00,,BKN250,0.13,VWS V14.01,2013-09-18 04:27:00,
2013-09-17 23:32:00,73.5,67.0,29.98,SSE,152,0.0,1.0,80,0.00,,BKN250,0.13,VWS V14.01,2013-09-18 04:32:00,
2013-09-17 23:37:00,73.5,67.0,29.98,ESE,106,0.0,2.0,80,0.00,,BKN250,0.13,VWS V14.01,2013-09-18 04:37:00,
2013-09-17 23:42:00,73.3,66.8,29.98,ESE,106,0.0,2.0,80,0.00,,BKN250,0.13,VWS V14.01,2013-09-18 04:42:00,
2013-09-17 23:47:00,73.3,67.1,29.99,ESE,106,0.0,2.0,81,0.00,,BKN250,0.13,VWS V14.01,2013-09-18 04:47:00,
2013-09-17 23:52:00,73.3,67.1,29.99,ESE,106,0.0,2.0,81,0.00,,BKN250,0.13,VWS V14.01,2013-09-18 04:52:00,
2013-09-17 23:57:00,73.3,67.1,29.99,ESE,106,0.0,2.0,81,0.00,,BKN250,0.13,VWS V14.01,2013-09-18 04:57:00,